FW7769 Weather Reports


time (UTC)temp
C
wind
direction
speed
KPH
gust
KPH
rain 1hr
cm
rain 24hr
cm
rain mn
cm
humidity
%
barometer
mb
20260502224603 17 0 0.0 0.0 0.00 0.00 0.00 89 1014.6
20260502223048 17 0 0.0 0.0 0.00 0.00 0.00 89 1014.6
20260502221550 17 0 0.0 0.0 0.00 0.00 0.00 88 1014.5
20260502220051 17 0 0.0 0.0 0.00 0.00 0.00 88 1014.4
20260502214549 17 0 0.0 0.0 0.00 0.00 0.00 87 1014.6
20260502213042 17 0 0.0 0.0 0.00 0.00 0.00 88 1014.9
20260502211608 17 0 0.0 1.6 0.00 0.00 0.00 88 1015.0
20260502210046 17 0 0.0 0.0 0.00 0.00 0.00 88 1014.6
20260502204547 17 0 0.0 0.0 0.00 0.00 0.00 88 1014.8
20260502203039 17 0 0.0 0.0 0.00 0.00 0.00 88 1014.7
20260502201543 18 0 0.0 0.0 0.00 0.00 0.00 88 1014.4
20260502200049 18 0 0.0 0.0 0.00 0.00 0.00 88 1014.3
20260502194600 18 0 0.0 0.0 0.00 0.00 0.00 87 1013.9
20260502193039 18 0 0.0 0.0 0.00 0.00 0.00 85 1014.0
20260502191547 18 0 0.0 0.0 0.00 0.00 0.00 85 1014.1
20260502190041 18 0 0.0 1.6 0.00 0.00 0.00 85 1014.0
20260502184552 18 0 0.0 6.4 0.00 0.00 0.00 83 1014.0
20260502183052 19 63 0.0 3.2 0.00 0.00 0.00 83 1013.9
20260502181547 19 44 0.0 3.2 0.00 0.00 0.00 82 1014.0
20260502163050 21 113 0.0 3.2 0.00 0.00 0.00 77 1014.5
20260502161543 21 0 0.0 3.2 0.00 0.00 0.00 76 1014.8
20260502151543 21 0 0.0 1.6 0.00 0.00 0.00 72 1015.5
20260502123044 22 0 1.6 8.0 0.00 0.00 0.00 70 1016.6
20260502121539 23 0 0.0 12.9 0.00 0.00 0.00 69 1016.6
20260502114549 22 0 0.0 6.4 0.00 0.00 0.00 71 1017.2
20260502113041 22 86 0.0 3.2 0.00 0.00 0.00 73 1017.5
20260502111550 22 0 0.0 4.8 0.00 0.00 0.00 74 1017.4
20260502110040 22 0 0.0 4.8 0.00 0.00 0.00 73 1017.6
20260502104548 22 0 0.0 6.4 0.00 0.00 0.00 74 1017.7
20260502103048 22 0 0.0 4.8 0.00 0.00 0.00 73 1017.8
20260502101608 22 0 0.0 6.4 0.00 0.00 0.00 74 1017.8
20260502070054 18 0 0.0 0.0 0.00 0.00 0.00 85 1018.3
20260502064539 18 0 0.0 0.0 0.00 0.00 0.00 85 1018.5
20260502063050 18 0 0.0 0.0 0.00 0.00 0.00 87 1018.4
20260502061543 17 0 0.0 0.0 0.00 0.00 0.00 88 1018.4
20260502060040 17 0 0.0 0.0 0.00 0.00 0.00 89 1018.2
20260502054542 17 0 0.0 0.0 0.00 0.00 0.00 89 1018.1
20260502053048 17 0 0.0 0.0 0.00 0.00 0.00 89 1018.1
20260502051603 17 0 0.0 0.0 0.00 0.00 0.00 89 1018.1
20260502050042 17 0 0.0 0.0 0.00 0.00 0.00 89 1018.1
20260502044545 17 0 0.0 0.0 0.00 0.00 0.00 89 1018.0
20260502043039 17 0 0.0 0.0 0.00 0.00 0.00 89 1018.0
20260502041542 17 0 0.0 0.0 0.00 0.00 0.00 88 1018.0
20260502040051 17 0 0.0 0.0 0.00 0.00 0.00 89 1018.3
20260502034544 17 0 0.0 0.0 0.00 0.00 0.00 89 1018.1
20260502033043 17 0 0.0 0.0 0.00 0.00 0.00 88 1018.3
20260502031541 17 0 0.0 0.0 0.00 0.00 0.00 88 1018.3
20260502030040 17 0 0.0 0.0 0.00 0.00 0.00 89 1018.3
20260502024540 17 0 0.0 0.0 0.00 0.00 0.00 89 1018.5
20260502023055 17 0 0.0 0.0 0.00 0.00 0.00 88 1018.4
20260502021541 17 0 0.0 0.0 0.00 0.00 0.00 88 1018.3
20260502020053 17 0 0.0 0.0 0.00 0.00 0.00 88 1018.6
20260502014539 17 0 0.0 0.0 0.00 0.00 0.00 88 1018.7
20260502013054 17 0 0.0 0.0 0.00 0.00 0.00 88 1018.7
20260502011543 17 0 0.0 0.0 0.00 0.00 0.00 88 1018.8
20260502010039 17 0 0.0 0.0 0.00 0.00 0.00 88 1019.0
20260502004538 17 0 0.0 0.0 0.00 0.00 0.00 88 1019.1
20260502003037 17 0 0.0 0.0 0.00 0.00 0.00 88 1019.2
20260502001602 17 0 0.0 0.0 0.00 0.00 0.00 88 1019.7
20260502000042 17 0 0.0 0.0 0.00 0.00 0.00 88 1020.0
20260501234540 17 0 0.0 0.0 0.00 0.00 0.00 88 1020.1
20260501233054 17 0 0.0 0.0 0.00 0.00 0.00 89 1020.1
20260501231538 17 0 0.0 0.0 0.00 0.00 0.00 89 1020.1
20260501230042 17 0 0.0 0.0 0.00 0.00 0.00 89 1020.1